Time,TemperatureF,DewpointF,PressureIn,WindDirection,WindDirectionDegrees,WindSpeedMPH,WindSpeedGustMPH,Humidity,HourlyPrecipIn,Conditions,Clouds,dailyrainin,SoftwareType,DateUTC
2013-02-09 00:00:00,39.5,15.3,29.72,ESE,102,2.0,2.0,37,0.00,,,0.00,Wunderground v.1.15,2013-02-09 07:00:00,
2013-02-09 00:02:00,39.5,15.3,29.72,ESE,102,1.0,2.0,37,0.00,,,0.00,Wunderground v.1.15,2013-02-09 07:02:00,
2013-02-09 00:06:00,39.3,15.2,29.72,ESE,102,0.0,2.0,37,0.00,,,0.00,Wunderground v.1.15,2013-02-09 07:06:00,
2013-02-09 00:08:00,39.2,15.1,29.72,ESE,102,0.0,2.0,37,0.00,,,0.00,Wunderground v.1.15,2013-02-09 07:08:00,
2013-02-09 00:12:00,39.3,15.2,29.72,East,101,0.0,1.0,37,0.00,,,0.00,Wunderground v.1.15,2013-02-09 07:12:00,
2013-02-09 00:14:00,39.2,15.7,29.72,East,101,0.0,1.0,38,0.00,,,0.00,Wunderground v.1.15,2013-02-09 07:14:00,
2013-02-09 00:16:00,39.2,15.7,29.72,East,101,0.0,1.0,38,0.00,,,0.00,Wunderground v.1.15,2013-02-09 07:16:00,
2013-02-09 00:20:00,39.2,15.7,29.72,South,173,1.0,1.0,38,0.00,,,0.00,Wunderground v.1.15,2013-02-09 07:20:00,
2013-02-09 00:22:00,39.1,15.6,29.72,South,173,1.0,1.0,38,0.00,,,0.00,Wunderground v.1.15,2013-02-09 07:22:00,
2013-02-09 00:24:00,38.9,16.0,29.72,South,173,1.0,1.0,39,0.00,,,0.00,Wunderground v.1.15,2013-02-09 07:24:00,
2013-02-09 00:28:00,38.8,15.9,29.72,ENE,69,1.0,1.0,39,0.00,,,0.00,Wunderground v.1.15,2013-02-09 07:28:00,
2013-02-09 00:30:00,38.9,15.4,29.71,ENE,69,1.0,2.0,38,0.00,,,0.00,Wunderground v.1.15,2013-02-09 07:30:00,
2013-02-09 00:32:00,38.9,16.0,29.71,ENE,65,1.0,3.0,39,0.00,,,0.00,Wunderground v.1.15,2013-02-09 07:32:00,
2013-02-09 00:36:00,38.9,16.0,29.71,ENE,64,1.0,3.0,39,0.00,,,0.00,Wunderground v.1.15,2013-02-09 07:36:00,
2013-02-09 00:38:00,38.9,16.0,29.71,NE,45,1.0,3.0,39,0.00,,,0.00,Wunderground v.1.15,2013-02-09 07:38:00,
2013-02-09 00:40:00,38.9,16.0,29.71,NE,44,1.0,1.0,39,0.00,,,0.00,Wunderground v.1.15,2013-02-09 07:40:00,
2013-02-09 00:42:00,38.8,15.9,29.71,NE,45,1.0,1.0,39,0.00,,,0.00,Wunderground v.1.15,2013-02-09 07:42:00,
2013-02-09 00:44:00,38.8,15.9,29.71,NE,42,0.0,1.0,39,0.00,,,0.00,Wunderground v.1.15,2013-02-09 07:44:00,
2013-02-09 00:50:00,39.1,15.6,29.71,SE,128,1.0,1.0,38,0.00,,,0.00,Wunderground v.1.15,2013-02-09 07:50:00,
2013-02-09 00:52:00,39.1,15.6,29.71,SE,128,1.0,1.0,38,0.00,,,0.00,Wunderground v.1.15,2013-02-09 07:52:00,
2013-02-09 00:56:00,38.9,16.0,29.71,SE,128,0.0,1.0,39,0.00,,,0.00,Wunderground v.1.15,2013-02-09 07:56:00,
2013-02-09 00:58:00,38.8,15.9,29.71,SE,128,0.0,1.0,39,0.00,,,0.00,Wunderground v.1.15,2013-02-09 07:58:00,
2013-02-09 01:02:00,38.5,15.7,29.71,SE,128,0.0,1.0,39,0.00,,,0.00,Wunderground v.1.15,2013-02-09 08:02:00,
2013-02-09 01:04:00,38.3,15.5,29.71,SE,128,0.0,1.0,39,0.00,,,0.00,Wunderground v.1.15,2013-02-09 08:04:00,
2013-02-09 01:10:00,38.3,15.5,29.71,SE,128,0.0,2.0,39,0.00,,,0.00,Wunderground v.1.15,2013-02-09 08:10:00,
2013-02-09 01:12:00,38.3,15.5,29.71,SE,128,0.0,2.0,39,0.00,,,0.00,Wunderground v.1.15,2013-02-09 08:12:00,
2013-02-09 01:14:00,38.3,16.1,29.71,SE,128,0.0,2.0,40,0.00,,,0.00,Wunderground v.1.15,2013-02-09 08:14:00,
2013-02-09 01:20:00,38.3,16.1,29.71,WNW,300,2.0,2.0,40,0.00,,,0.00,Wunderground v.1.15,2013-02-09 08:20:00,
2013-02-09 01:22:00,38.3,16.1,29.71,WNW,298,2.0,2.0,40,0.00,,,0.00,Wunderground v.1.15,2013-02-09 08:22:00,
2013-02-09 01:24:00,38.3,16.6,29.71,WNW,296,2.0,3.0,41,0.00,,,0.00,Wunderground v.1.15,2013-02-09 08:24:00,
2013-02-09 01:30:00,38.2,17.6,29.70,SSW,200,1.0,4.0,43,0.00,,,0.00,Wunderground v.1.15,2013-02-09 08:30:00,
2013-02-09 01:36:00,38.0,17.5,29.70,SSW,201,1.0,4.0,43,0.00,,,0.00,Wunderground v.1.15,2013-02-09 08:36:00,
2013-02-09 01:38:00,38.0,17.5,29.70,SSW,200,1.0,4.0,43,0.00,,,0.00,Wunderground v.1.15,2013-02-09 08:38:00,
2013-02-09 01:42:00,37.9,17.9,29.70,SSW,200,0.0,1.0,44,0.00,,,0.00,Wunderground v.1.15,2013-02-09 08:42:00,
2013-02-09 01:46:00,37.6,18.2,29.70,SSW,200,0.0,1.0,45,0.00,,,0.00,Wunderground v.1.15,2013-02-09 08:46:00,
2013-02-09 01:48:00,37.6,18.2,29.70,SSW,200,0.0,1.0,45,0.00,,,0.00,Wunderground v.1.15,2013-02-09 08:48:00,
2013-02-09 01:52:00,37.5,18.6,29.70,SSW,200,0.0,0.0,46,0.00,,,0.00,Wunderground v.1.15,2013-02-09 08:52:00,
2013-02-09 01:54:00,37.3,18.9,29.70,SSW,200,0.0,0.0,47,0.00,,,0.00,Wunderground v.1.15,2013-02-09 08:54:00,
2013-02-09 01:58:00,37.2,18.8,29.70,SSW,200,0.0,0.0,47,0.00,,,0.00,Wunderground v.1.15,2013-02-09 08:58:00,
2013-02-09 02:00:00,37.2,19.3,29.72,SSW,200,0.0,0.0,48,0.00,,,0.00,Wunderground v.1.15,2013-02-09 09:00:00,
2013-02-09 02:02:00,37.0,19.1,29.72,SSW,200,0.0,0.0,48,0.00,,,0.00,Wunderground v.1.15,2013-02-09 09:02:00,
2013-02-09 02:06:00,36.9,19.5,29.72,SSW,200,0.0,0.0,49,0.00,,,0.00,Wunderground v.1.15,2013-02-09 09:06:00,
2013-02-09 02:12:00,36.8,19.4,29.72,SSW,200,0.0,0.0,49,0.00,,,0.00,Wunderground v.1.15,2013-02-09 09:12:00,
2013-02-09 02:14:00,36.8,19.9,29.72,SSW,200,0.0,0.0,50,0.00,,,0.00,Wunderground v.1.15,2013-02-09 09:14:00,
2013-02-09 02:18:00,36.6,19.2,29.71,SSW,200,0.0,0.0,49,0.00,,,0.00,Wunderground v.1.15,2013-02-09 09:18:00,
2013-02-09 02:20:00,36.6,19.7,29.71,SSW,200,0.0,0.0,50,0.00,,,0.00,Wunderground v.1.15,2013-02-09 09:20:00,
2013-02-09 02:26:00,36.6,19.7,29.71,SSW,200,0.0,0.0,50,0.00,,,0.00,Wunderground v.1.15,2013-02-09 09:26:00,
2013-02-09 02:30:00,36.6,19.7,29.71,SSW,200,0.0,0.0,50,0.00,,,0.00,Wunderground v.1.15,2013-02-09 09:30:00,
2013-02-09 02:32:00,36.5,19.6,29.71,SSW,200,0.0,0.0,50,0.00,,,0.00,Wunderground v.1.15,2013-02-09 09:32:00,
2013-02-09 02:36:00,36.5,20.1,29.71,SSW,201,0.0,0.0,51,0.00,,,0.00,Wunderground v.1.15,2013-02-09 09:36:00,
2013-02-09 02:38:00,36.3,19.9,29.71,SSW,200,0.0,0.0,51,0.00,,,0.00,Wunderground v.1.15,2013-02-09 09:38:00,
2013-02-09 02:44:00,36.2,20.2,29.71,SSW,200,0.0,0.0,52,0.00,,,0.00,Wunderground v.1.15,2013-02-09 09:44:00,
2013-02-09 02:48:00,36.0,20.9,29.71,SSW,200,0.0,1.0,54,0.00,,,0.00,Wunderground v.1.15,2013-02-09 09:48:00,
2013-02-09 02:52:00,35.9,22.1,29.71,SSW,200,0.0,1.0,57,0.00,,,0.00,Wunderground v.1.15,2013-02-09 09:52:00,
2013-02-09 02:54:00,35.8,22.5,29.71,ESE,108,1.0,2.0,58,0.00,,,0.00,Wunderground v.1.15,2013-02-09 09:54:00,
2013-02-09 02:56:00,35.6,22.7,29.71,ESE,109,1.0,3.0,59,0.00,,,0.00,Wunderground v.1.15,2013-02-09 09:56:00,
2013-02-09 02:58:00,35.6,22.7,29.71,ESE,110,1.0,3.0,59,0.00,,,0.00,Wunderground v.1.15,2013-02-09 09:58:00,
2013-02-09 03:04:00,35.3,23.2,29.69,East,87,1.0,2.0,61,0.00,,,0.00,Wunderground v.1.15,2013-02-09 10:04:00,
2013-02-09 03:06:00,35.2,23.1,29.69,East,89,2.0,2.0,61,0.00,,,0.00,Wunderground v.1.15,2013-02-09 10:06:00,
2013-02-09 03:08:00,35.2,23.5,29.69,East,89,2.0,2.0,62,0.00,,,0.00,Wunderground v.1.15,2013-02-09 10:08:00,
2013-02-09 03:10:00,35.0,23.3,29.69,East,89,2.0,2.0,62,0.00,,,0.00,Wunderground v.1.15,2013-02-09 10:10:00,
2013-02-09 03:12:00,35.0,23.3,29.69,East,89,1.0,1.0,62,0.00,,,0.00,Wunderground v.1.15,2013-02-09 10:12:00,
2013-02-09 03:16:00,34.9,23.2,29.71,East,89,1.0,1.0,62,0.00,,,0.00,Wunderground v.1.15,2013-02-09 10:16:00,
2013-02-09 03:18:00,34.9,23.2,29.71,East,89,1.0,1.0,62,0.00,,,0.00,Wunderground v.1.15,2013-02-09 10:18:00,
2013-02-09 03:22:00,34.9,23.2,29.71,East,85,0.0,2.0,62,0.00,,,0.00,Wunderground v.1.15,2013-02-09 10:22:00,
2013-02-09 03:26:00,34.7,23.4,29.71,East,86,1.0,2.0,63,0.00,,,0.00,Wunderground v.1.15,2013-02-09 10:26:00,
2013-02-09 03:32:00,34.3,23.7,29.72,ENE,63,2.0,3.0,65,0.00,,,0.00,Wunderground v.1.15,2013-02-09 10:32:00,
2013-02-09 03:36:00,34.0,24.2,29.72,NE,56,2.0,3.0,67,0.00,,,0.00,Wunderground v.1.15,2013-02-09 10:36:00,
2013-02-09 03:38:00,33.8,24.0,29.72,NE,56,2.0,3.0,67,0.00,,,0.00,Wunderground v.1.15,2013-02-09 10:38:00,
2013-02-09 03:42:00,33.7,24.3,29.72,NE,54,2.0,2.0,68,0.00,,,0.00,Wunderground v.1.15,2013-02-09 10:42:00,
2013-02-09 03:46:00,33.5,24.4,29.71,NNE,12,2.0,4.0,69,0.00,,,0.00,Wunderground v.1.15,2013-02-09 10:46:00,
2013-02-09 03:48:00,33.5,24.4,29.71,North,32767,2.0,4.0,69,0.00,,,0.00,Wunderground v.1.15,2013-02-09 10:48:00,
2013-02-09 03:50:00,33.5,24.4,29.71,North,32767,2.0,4.0,69,0.00,,,0.00,Wunderground v.1.15,2013-02-09 10:50:00,
2013-02-09 03:54:00,33.4,24.0,29.71,North,32767,1.0,2.0,68,0.00,,,0.00,Wunderground v.1.15,2013-02-09 10:54:00,
2013-02-09 03:56:00,33.5,24.4,29.71,North,32767,0.0,2.0,69,0.00,,,0.00,Wunderground v.1.15,2013-02-09 10:56:00,
2013-02-09 04:00:00,33.4,24.3,29.71,North,32767,0.0,0.0,69,0.00,,,0.00,Wunderground v.1.15,2013-02-09 11:00:00,
2013-02-09 04:02:00,33.4,24.3,29.72,North,32767,0.0,0.0,69,0.00,,,0.00,Wunderground v.1.15,2013-02-09 11:02:00,
2013-02-09 04:06:00,33.2,23.1,29.72,NNW,345,1.0,14.0,66,0.00,,,0.00,Wunderground v.1.15,2013-02-09 11:06:00,
2013-02-09 04:08:00,33.1,22.6,29.72,North,32767,2.0,14.0,65,0.00,,,0.00,Wunderground v.1.15,2013-02-09 11:08:00,
2013-02-09 04:10:00,33.1,22.2,29.72,North,32767,2.0,2.0,64,0.00,,,0.00,Wunderground v.1.15,2013-02-09 11:10:00,
2013-02-09 04:12:00,33.1,22.2,29.72,WNW,288,2.0,2.0,64,0.00,,,0.00,Wunderground v.1.15,2013-02-09 11:12:00,
2013-02-09 04:14:00,33.1,22.2,29.72,WNW,288,2.0,3.0,64,0.00,,,0.00,Wunderground v.1.15,2013-02-09 11:14:00,
2013-02-09 04:20:00,32.8,23.0,29.75,North,355,3.0,9.0,67,0.00,,,0.00,Wunderground v.1.15,2013-02-09 11:20:00,
2013-02-09 04:24:00,32.2,23.8,29.75,NW,313,4.0,9.0,71,0.00,,,0.00,Wunderground v.1.15,2013-02-09 11:24:00,
2013-02-09 04:26:00,32.1,24.1,29.75,NNW,339,4.0,9.0,72,0.00,,,0.00,Wunderground v.1.15,2013-02-09 11:26:00,
2013-02-09 04:28:00,31.9,24.2,29.75,NNW,335,4.0,9.0,73,0.00,,,0.00,Wunderground v.1.15,2013-02-09 11:28:00,
2013-02-09 04:30:00,31.6,24.6,29.75,North,9,4.0,4.0,75,0.00,,,0.00,Wunderground v.1.15,2013-02-09 11:30:00,
2013-02-09 04:32:00,31.3,24.6,29.75,NNW,342,4.0,4.0,76,0.00,,,0.00,Wunderground v.1.15,2013-02-09 11:32:00,
2013-02-09 04:34:00,31.2,24.8,29.75,NNW,348,4.0,4.0,77,0.00,,,0.00,Wunderground v.1.15,2013-02-09 11:34:00,
2013-02-09 04:40:00,30.6,25.2,29.75,NW,306,3.0,3.0,80,0.00,,,0.00,Wunderground v.1.15,2013-02-09 11:40:00,
2013-02-09 04:42:00,30.4,25.3,29.75,NNE,17,3.0,3.0,81,0.00,,,0.00,Wunderground v.1.15,2013-02-09 11:42:00,
2013-02-09 04:46:00,30.3,25.5,29.75,North,355,3.0,4.0,82,0.00,,,0.00,Wunderground v.1.15,2013-02-09 11:46:00,
2013-02-09 04:48:00,30.1,25.3,29.75,NNW,339,3.0,4.0,82,0.00,,,0.00,Wunderground v.1.15,2013-02-09 11:48:00,
2013-02-09 04:50:00,30.1,25.3,29.75,North,5,2.0,2.0,82,0.00,,,0.00,Wunderground v.1.15,2013-02-09 11:50:00,
2013-02-09 04:54:00,30.0,25.5,29.75,North,32767,2.0,2.0,83,0.00,,,0.00,Wunderground v.1.15,2013-02-09 11:54:00,
2013-02-09 04:56:00,30.0,25.5,29.75,North,32767,1.0,2.0,83,0.00,,,0.00,Wunderground v.1.15,2013-02-09 11:56:00,
2013-02-09 04:58:00,29.8,25.6,29.75,North,349,1.0,2.0,84,0.00,,,0.00,Wunderground v.1.15,2013-02-09 11:58:00,
2013-02-09 05:02:00,29.8,25.6,29.75,North,355,1.0,1.0,84,0.00,,,0.00,Wunderground v.1.15,2013-02-09 12:02:00,
2013-02-09 05:04:00,29.7,25.5,29.75,North,32767,1.0,1.0,84,0.00,,,0.00,Wunderground v.1.15,2013-02-09 12:04:00,
2013-02-09 05:06:00,29.7,25.5,29.75,North,32767,1.0,1.0,84,0.00,,,0.00,Wunderground v.1.15,2013-02-09 12:06:00,
2013-02-09 05:08:00,29.7,25.5,29.75,North,5,1.0,1.0,84,0.00,,,0.00,Wunderground v.1.15,2013-02-09 12:08:00,
2013-02-09 05:10:00,29.7,25.7,29.75,NNE,13,0.0,2.0,85,0.00,,,0.00,Wunderground v.1.15,2013-02-09 12:10:00,
2013-02-09 05:12:00,29.7,25.7,29.75,NNE,12,0.0,0.0,85,0.00,,,0.00,Wunderground v.1.15,2013-02-09 12:12:00,
2013-02-09 05:16:00,29.7,25.7,29.80,NNE,12,0.0,0.0,85,0.00,,,0.00,Wunderground v.1.15,2013-02-09 12:16:00,
2013-02-09 05:18:00,29.7,25.7,29.80,NNE,12,0.0,1.0,85,0.00,,,0.00,Wunderground v.1.15,2013-02-09 12:18:00,
2013-02-09 05:20:00,29.7,25.7,29.80,NNE,12,0.0,2.0,85,0.00,,,0.00,Wunderground v.1.15,2013-02-09 12:20:00,
2013-02-09 05:22:00,29.5,25.5,29.80,NNE,12,0.0,2.0,85,0.00,,,0.00,Wunderground v.1.15,2013-02-09 12:22:00,
2013-02-09 05:24:00,29.5,25.5,29.80,North,11,1.0,2.0,85,0.00,,,0.00,Wunderground v.1.15,2013-02-09 12:24:00,
2013-02-09 05:28:00,29.5,25.8,29.80,North,32767,1.0,2.0,86,0.00,,,0.00,Wunderground v.1.15,2013-02-09 12:28:00,
2013-02-09 05:32:00,29.5,25.8,29.79,North,355,1.0,1.0,86,0.00,,,0.00,Wunderground v.1.15,2013-02-09 12:32:00,
2013-02-09 05:34:00,29.5,25.8,29.79,North,9,1.0,3.0,86,0.00,,,0.00,Wunderground v.1.15,2013-02-09 12:34:00,
2013-02-09 05:38:00,29.4,25.7,29.79,North,9,2.0,3.0,86,0.00,,,0.00,Wunderground v.1.15,2013-02-09 12:38:00,
2013-02-09 05:40:00,29.4,25.7,29.79,North,32767,2.0,3.0,86,0.00,,,0.00,Wunderground v.1.15,2013-02-09 12:40:00,
2013-02-09 05:44:00,29.4,25.7,29.79,North,5,2.0,2.0,86,0.00,,,0.00,Wunderground v.1.15,2013-02-09 12:44:00,
2013-02-09 05:48:00,29.3,25.6,29.79,North,355,1.0,2.0,86,0.00,,,0.00,Wunderground v.1.15,2013-02-09 12:48:00,
2013-02-09 05:50:00,29.3,25.6,29.79,North,9,1.0,2.0,86,0.00,,,0.00,Wunderground v.1.15,2013-02-09 12:50:00,
2013-02-09 05:56:00,29.3,25.6,29.79,North,10,1.0,3.0,86,0.00,,,0.00,Wunderground v.1.15,2013-02-09 12:56:00,
2013-02-09 05:58:00,29.3,25.6,29.79,North,5,1.0,3.0,86,0.00,,,0.00,Wunderground v.1.15,2013-02-09 12:58:00,
2013-02-09 06:00:00,29.1,25.4,29.79,North,32767,1.0,1.0,86,0.00,,,0.00,Wunderground v.1.15,2013-02-09 13:00:00,
2013-02-09 06:02:00,29.1,25.4,29.78,North,32767,1.0,1.0,86,0.00,,,0.00,Wunderground v.1.15,2013-02-09 13:02:00,
2013-02-09 06:04:00,29.1,25.4,29.78,North,5,1.0,2.0,86,0.00,,,0.00,Wunderground v.1.15,2013-02-09 13:04:00,
2013-02-09 06:08:00,29.1,25.7,29.78,NNE,15,1.0,2.0,87,0.00,,,0.00,Wunderground v.1.15,2013-02-09 13:08:00,
2013-02-09 06:10:00,29.1,25.7,29.78,NNE,13,1.0,1.0,87,0.00,,,0.00,Wunderground v.1.15,2013-02-09 13:10:00,
2013-02-09 06:12:00,29.1,25.4,29.78,NNE,15,1.0,1.0,86,0.00,,,0.00,Wunderground v.1.15,2013-02-09 13:12:00,
2013-02-09 06:14:00,29.1,25.7,29.78,NNE,15,1.0,3.0,87,0.00,,,0.00,Wunderground v.1.15,2013-02-09 13:14:00,
2013-02-09 06:20:00,29.0,25.6,29.80,North,32767,1.0,1.0,87,0.00,,,0.00,Wunderground v.1.15,2013-02-09 13:20:00,
2013-02-09 06:22:00,29.0,25.6,29.80,North,32767,1.0,1.0,87,0.00,,,0.00,Wunderground v.1.15,2013-02-09 13:22:00,
2013-02-09 06:26:00,29.0,25.6,29.80,North,32767,0.0,1.0,87,0.00,,,0.00,Wunderground v.1.15,2013-02-09 13:26:00,
2013-02-09 06:30:00,29.0,25.6,29.80,North,32767,0.0,0.0,87,0.00,,,0.00,Wunderground v.1.15,2013-02-09 13:30:00,
2013-02-09 06:32:00,29.0,25.6,29.80,NE,38,0.0,1.0,87,0.00,,,0.00,Wunderground v.1.15,2013-02-09 13:32:00,
2013-02-09 06:34:00,29.0,25.6,29.80,NE,38,0.0,1.0,87,0.00,,,0.00,Wunderground v.1.15,2013-02-09 13:34:00,
2013-02-09 06:38:00,29.0,25.6,29.80,NE,38,0.0,1.0,87,0.00,,,0.00,Wunderground v.1.15,2013-02-09 13:38:00,
2013-02-09 06:40:00,29.0,25.6,29.80,NE,38,0.0,0.0,87,0.00,,,0.00,Wunderground v.1.15,2013-02-09 13:40:00,
2013-02-09 06:42:00,29.0,25.6,29.80,NE,38,0.0,0.0,87,0.00,,,0.00,Wunderground v.1.15,2013-02-09 13:42:00,
2013-02-09 06:48:00,29.0,25.6,29.80,ENE,57,1.0,1.0,87,0.00,,,0.00,Wunderground v.1.15,2013-02-09 13:48:00,
2013-02-09 06:50:00,29.0,25.6,29.80,NE,55,1.0,1.0,87,0.00,,,0.00,Wunderground v.1.15,2013-02-09 13:50:00,
2013-02-09 06:52:00,29.0,25.6,29.80,NE,55,1.0,3.0,87,0.00,,,0.00,Wunderground v.1.15,2013-02-09 13:52:00,
2013-02-09 06:54:00,29.0,25.6,29.80,NE,55,1.0,3.0,87,0.00,,,0.00,Wunderground v.1.15,2013-02-09 13:54:00,
2013-02-09 06:56:00,29.0,25.6,29.80,NE,55,1.0,3.0,87,0.00,,,0.00,Wunderground v.1.15,2013-02-09 13:56:00,
2013-02-09 06:58:00,29.0,25.6,29.80,NE,52,1.0,3.0,87,0.00,,,0.00,Wunderground v.1.15,2013-02-09 13:58:00,
2013-02-09 07:00:00,29.0,25.6,29.80,NNE,13,1.0,1.0,87,0.00,,,0.00,Wunderground v.1.15,2013-02-09 14:00:00,
2013-02-09 07:04:00,29.0,25.6,29.80,NNE,13,1.0,1.0,87,0.00,,,0.00,Wunderground v.1.15,2013-02-09 14:04:00,
2013-02-09 07:06:00,29.0,25.6,29.80,ENE,67,1.0,3.0,87,0.00,,,0.00,Wunderground v.1.15,2013-02-09 14:06:00,
2013-02-09 07:12:00,29.0,25.3,29.80,NE,38,1.0,2.0,86,0.00,,,0.00,Wunderground v.1.15,2013-02-09 14:12:00,
2013-02-09 07:14:00,29.0,25.3,29.80,East,94,1.0,2.0,86,0.00,,,0.00,Wunderground v.1.15,2013-02-09 14:14:00,
2013-02-09 07:18:00,29.0,25.3,29.81,East,94,1.0,2.0,86,0.00,,,0.00,Wunderground v.1.15,2013-02-09 14:18:00,
2013-02-09 07:20:00,29.0,25.1,29.81,East,93,1.0,1.0,85,0.00,,,0.00,Wunderground v.1.15,2013-02-09 14:20:00,
2013-02-09 07:22:00,29.0,25.1,29.81,East,94,0.0,1.0,85,0.00,,,0.00,Wunderground v.1.15,2013-02-09 14:22:00,
2013-02-09 07:24:00,29.0,25.1,29.81,East,94,0.0,1.0,85,0.00,,,0.00,Wunderground v.1.15,2013-02-09 14:24:00,
2013-02-09 07:26:00,29.0,25.1,29.81,East,94,0.0,1.0,85,0.00,,,0.00,Wunderground v.1.15,2013-02-09 14:26:00,
2013-02-09 07:32:00,29.0,24.8,29.81,East,94,0.0,0.0,84,0.00,,,0.00,Wunderground v.1.15,2013-02-09 14:32:00,
2013-02-09 07:34:00,29.0,24.8,29.81,East,94,0.0,0.0,84,0.00,,,0.00,Wunderground v.1.15,2013-02-09 14:34:00,
2013-02-09 07:36:00,29.1,24.6,29.81,East,94,0.0,0.0,83,0.00,,,0.00,Wunderground v.1.15,2013-02-09 14:36:00,
2013-02-09 07:38:00,29.1,24.6,29.81,East,94,0.0,0.0,83,0.00,,,0.00,Wunderground v.1.15,2013-02-09 14:38:00,
2013-02-09 07:42:00,29.1,24.3,29.81,East,94,0.0,0.0,82,0.00,,,0.00,Wunderground v.1.15,2013-02-09 14:42:00,
2013-02-09 07:44:00,29.1,24.3,29.81,East,94,0.0,0.0,82,0.00,,,0.00,Wunderground v.1.15,2013-02-09 14:44:00,
2013-02-09 07:46:00,29.1,24.0,29.81,East,94,0.0,0.0,81,0.00,,,0.00,Wunderground v.1.15,2013-02-09 14:46:00,
2013-02-09 07:52:00,29.1,23.7,29.81,East,94,0.0,1.0,80,0.00,,,0.00,Wunderground v.1.15,2013-02-09 14:52:00,
2013-02-09 07:54:00,29.1,23.7,29.81,East,94,0.0,1.0,80,0.00,,,0.00,Wunderground v.1.15,2013-02-09 14:54:00,
2013-02-09 07:58:00,29.1,23.7,29.81,East,94,0.0,1.0,80,0.00,,,0.00,Wunderground v.1.15,2013-02-09 14:58:00,
2013-02-09 08:04:00,29.3,23.9,29.81,East,94,0.0,0.0,80,0.00,,,0.00,Wunderground v.1.15,2013-02-09 15:04:00,
2013-02-09 08:08:00,29.3,23.9,29.81,East,94,0.0,0.0,80,0.00,,,0.00,Wunderground v.1.15,2013-02-09 15:08:00,
2013-02-09 08:10:00,29.4,24.0,29.81,East,94,0.0,0.0,80,0.00,,,0.00,Wunderground v.1.15,2013-02-09 15:10:00,
2013-02-09 08:12:00,29.4,24.0,29.81,East,94,0.0,0.0,80,0.00,,,0.00,Wunderground v.1.15,2013-02-09 15:12:00,
2013-02-09 08:14:00,29.4,24.0,29.81,East,94,0.0,0.0,80,0.00,,,0.00,Wunderground v.1.15,2013-02-09 15:14:00,
2013-02-09 08:16:00,29.4,23.7,29.77,East,94,0.0,0.0,79,0.00,,,0.00,Wunderground v.1.15,2013-02-09 15:16:00,
2013-02-09 08:18:00,29.4,23.7,29.77,East,94,0.0,0.0,79,0.00,,,0.00,Wunderground v.1.15,2013-02-09 15:18:00,
2013-02-09 08:24:00,29.5,23.5,29.77,East,94,0.0,1.0,78,0.00,,,0.00,Wunderground v.1.15,2013-02-09 15:24:00,
2013-02-09 08:26:00,29.5,23.5,29.77,East,94,0.0,1.0,78,0.00,,,0.00,Wunderground v.1.15,2013-02-09 15:26:00,
2013-02-09 08:28:00,29.5,23.5,29.77,East,94,0.0,1.0,78,0.00,,,0.00,Wunderground v.1.15,2013-02-09 15:28:00,
2013-02-09 08:30:00,29.7,23.4,29.77,East,94,0.0,1.0,77,0.00,,,0.00,Wunderground v.1.15,2013-02-09 15:30:00,
2013-02-09 08:34:00,29.7,23.4,29.76,East,94,0.0,0.0,77,0.00,,,0.00,Wunderground v.1.15,2013-02-09 15:34:00,
2013-02-09 08:36:00,29.7,23.4,29.76,East,94,0.0,0.0,77,0.00,,,0.00,Wunderground v.1.15,2013-02-09 15:36:00,
2013-02-09 08:40:00,29.8,23.2,29.76,East,93,0.0,0.0,76,0.00,,,0.00,Wunderground v.1.15,2013-02-09 15:40:00,
2013-02-09 08:42:00,29.8,23.2,29.76,East,94,0.0,1.0,76,0.00,,,0.00,Wunderground v.1.15,2013-02-09 15:42:00,
2013-02-09 08:46:00,30.0,23.0,29.76,East,94,0.0,1.0,75,0.00,,,0.00,Wunderground v.1.15,2013-02-09 15:46:00,
2013-02-09 08:48:00,30.0,23.0,29.76,East,93,0.0,1.0,75,0.00,,,0.00,Wunderground v.1.15,2013-02-09 15:48:00,
2013-02-09 08:52:00,30.1,23.1,29.76,East,93,0.0,0.0,75,0.00,,,0.00,Wunderground v.1.15,2013-02-09 15:52:00,
2013-02-09 08:54:00,30.1,22.8,29.76,East,93,0.0,1.0,74,0.00,,,0.00,Wunderground v.1.15,2013-02-09 15:54:00,
2013-02-09 08:58:00,30.3,23.0,29.76,East,93,0.0,1.0,74,0.00,,,0.00,Wunderground v.1.15,2013-02-09 15:58:00,
2013-02-09 09:00:00,30.3,22.7,29.76,East,93,0.0,0.0,73,0.00,,,0.00,Wunderground v.1.15,2013-02-09 16:00:00,
2013-02-09 09:06:00,30.4,22.8,29.77,East,93,0.0,0.0,73,0.00,,,0.00,Wunderground v.1.15,2013-02-09 16:06:00,
2013-02-09 09:08:00,30.6,23.0,29.77,East,93,0.0,0.0,73,0.00,,,0.00,Wunderground v.1.15,2013-02-09 16:08:00,
2013-02-09 09:10:00,30.7,23.1,29.77,East,94,0.0,0.0,73,0.00,,,0.00,Wunderground v.1.15,2013-02-09 16:10:00,
2013-02-09 09:12:00,30.7,23.1,29.77,East,93,0.0,2.0,73,0.00,,,0.00,Wunderground v.1.15,2013-02-09 16:12:00,
2013-02-09 09:14:00,30.7,23.1,29.77,East,94,0.0,2.0,73,0.00,,,0.00,Wunderground v.1.15,2013-02-09 16:14:00,
2013-02-09 09:16:00,30.9,22.9,29.77,East,94,0.0,2.0,72,0.00,,,0.00,Wunderground v.1.15,2013-02-09 16:16:00,
2013-02-09 09:20:00,30.9,22.6,29.77,East,94,1.0,1.0,71,0.00,,,0.00,Wunderground v.1.15,2013-02-09 16:20:00,
2013-02-09 09:22:00,31.0,22.7,29.77,East,94,1.0,1.0,71,0.00,,,0.00,Wunderground v.1.15,2013-02-09 16:22:00,
2013-02-09 09:24:00,31.0,22.7,29.77,East,94,1.0,1.0,71,0.00,,,0.00,Wunderground v.1.15,2013-02-09 16:24:00,
2013-02-09 09:26:00,31.0,22.4,29.77,East,94,1.0,1.0,70,0.00,,,0.00,Wunderground v.1.15,2013-02-09 16:26:00,
2013-02-09 09:28:00,31.2,22.2,29.77,East,94,1.0,2.0,69,0.00,,,0.00,Wunderground v.1.15,2013-02-09 16:28:00,
2013-02-09 09:30:00,31.2,22.2,29.77,East,94,1.0,1.0,69,0.00,,,0.00,Wunderground v.1.15,2013-02-09 16:30:00,
2013-02-09 09:36:00,31.5,22.5,29.77,East,94,1.0,1.0,69,0.00,,,0.00,Wunderground v.1.15,2013-02-09 16:36:00,
2013-02-09 09:38:00,31.8,22.8,29.77,East,94,0.0,1.0,69,0.00,,,0.00,Wunderground v.1.15,2013-02-09 16:38:00,
2013-02-09 09:40:00,31.8,22.4,29.77,East,94,0.0,0.0,68,0.00,,,0.00,Wunderground v.1.15,2013-02-09 16:40:00,
2013-02-09 09:42:00,31.9,22.5,29.77,East,94,0.0,0.0,68,0.00,,,0.00,Wunderground v.1.15,2013-02-09 16:42:00,
2013-02-09 09:46:00,32.1,22.0,29.75,East,94,0.0,1.0,66,0.00,,,0.00,Wunderground v.1.15,2013-02-09 16:46:00,
2013-02-09 09:48:00,32.1,21.7,29.75,East,94,0.0,1.0,65,0.00,,,0.00,Wunderground v.1.15,2013-02-09 16:48:00,
2013-02-09 09:52:00,32.2,21.7,29.75,East,93,0.0,2.0,65,0.00,,,0.01,Wunderground v.1.15,2013-02-09 16:52:00,
2013-02-09 09:56:00,32.2,22.5,29.75,East,89,1.0,2.0,67,0.00,,,0.01,Wunderground v.1.15,2013-02-09 16:56:00,
2013-02-09 09:58:00,32.2,22.1,29.75,East,90,1.0,2.0,66,0.00,,,0.01,Wunderground v.1.15,2013-02-09 16:58:00,
2013-02-09 10:02:00,32.2,22.1,29.75,East,89,1.0,1.0,66,0.00,,,0.01,Wunderground v.1.15,2013-02-09 17:02:00,
2013-02-09 10:04:00,32.2,21.7,29.75,East,90,1.0,1.0,65,0.00,,,0.01,Wunderground v.1.15,2013-02-09 17:04:00,
2013-02-09 10:06:00,32.4,21.9,29.75,East,89,1.0,2.0,65,0.00,,,0.01,Wunderground v.1.15,2013-02-09 17:06:00,
2013-02-09 10:10:00,32.4,21.9,29.75,East,92,1.0,2.0,65,0.00,,,0.01,Wunderground v.1.15,2013-02-09 17:10:00,
2013-02-09 10:12:00,32.4,21.9,29.75,East,92,1.0,1.0,65,0.00,,,0.01,Wunderground v.1.15,2013-02-09 17:12:00,
2013-02-09 10:14:00,32.4,21.9,29.75,East,92,1.0,3.0,65,0.00,,,0.01,Wunderground v.1.15,2013-02-09 17:14:00,
2013-02-09 10:18:00,32.5,21.3,29.76,East,92,1.0,3.0,63,0.00,,,0.02,Wunderground v.1.15,2013-02-09 17:18:00,
2013-02-09 10:22:00,32.5,21.3,29.76,East,92,1.0,2.0,63,0.00,,,0.02,Wunderground v.1.15,2013-02-09 17:22:00,
2013-02-09 10:24:00,32.5,20.9,29.76,East,92,1.0,2.0,62,0.00,,,0.02,Wunderground v.1.15,2013-02-09 17:24:00,
2013-02-09 10:26:00,32.7,21.1,29.76,East,88,1.0,2.0,62,0.00,,,0.02,Wunderground v.1.15,2013-02-09 17:26:00,
2013-02-09 10:30:00,32.7,21.5,29.76,East,89,1.0,2.0,63,0.00,,,0.02,Wunderground v.1.15,2013-02-09 17:30:00,
2013-02-09 10:32:00,32.7,21.5,29.75,East,89,1.0,1.0,63,0.00,,,0.02,Wunderground v.1.15,2013-02-09 17:32:00,
2013-02-09 10:36:00,32.9,21.7,29.75,East,87,1.0,1.0,63,0.00,,,0.02,Wunderground v.1.15,2013-02-09 17:36:00,
2013-02-09 10:38:00,32.9,21.3,29.75,East,88,1.0,1.0,62,0.00,,,0.02,Wunderground v.1.15,2013-02-09 17:38:00,
2013-02-09 10:40:00,33.1,21.5,29.75,East,88,1.0,1.0,62,0.00,,,0.02,Wunderground v.1.15,2013-02-09 17:40:00,
2013-02-09 10:46:00,33.1,19.9,29.74,East,87,1.0,1.0,58,0.00,,,0.02,Wunderground v.1.15,2013-02-09 17:46:00,
2013-02-09 10:48:00,33.2,20.0,29.74,East,87,1.0,1.0,58,0.00,,,0.02,Wunderground v.1.15,2013-02-09 17:48:00,
2013-02-09 10:50:00,33.1,19.9,29.74,East,86,1.0,1.0,58,0.00,,,0.02,Wunderground v.1.15,2013-02-09 17:50:00,
2013-02-09 10:54:00,33.1,19.5,29.74,East,87,1.0,2.0,57,0.00,,,0.02,Wunderground v.1.15,2013-02-09 17:54:00,
2013-02-09 10:56:00,33.1,19.5,29.74,East,87,1.0,2.0,57,0.00,,,0.02,Wunderground v.1.15,2013-02-09 17:56:00,
2013-02-09 10:58:00,33.2,20.0,29.74,East,87,1.0,2.0,58,0.00,,,0.02,Wunderground v.1.15,2013-02-09 17:58:00,
2013-02-09 11:00:00,33.4,19.4,29.74,East,92,1.0,1.0,56,0.00,,,0.02,Wunderground v.1.15,2013-02-09 18:00:00,
2013-02-09 11:02:00,33.4,19.4,29.75,East,91,1.0,1.0,56,0.00,,,0.02,Wunderground v.1.15,2013-02-09 18:02:00,
2013-02-09 11:08:00,33.7,20.1,29.75,East,92,0.0,1.0,57,0.00,,,0.02,Wunderground v.1.15,2013-02-09 18:08:00,
2013-02-09 11:10:00,33.8,20.2,29.75,East,91,0.0,0.0,57,0.00,,,0.02,Wunderground v.1.15,2013-02-09 18:10:00,
2013-02-09 11:14:00,34.1,20.4,29.75,East,91,0.0,1.0,57,0.00,,,0.02,Wunderground v.1.15,2013-02-09 18:14:00,
2013-02-09 11:20:00,34.3,19.4,29.74,East,97,1.0,2.0,54,0.00,,,0.02,Wunderground v.1.15,2013-02-09 18:20:00,
2013-02-09 11:24:00,34.1,19.2,29.74,East,97,1.0,2.0,54,0.00,,,0.02,Wunderground v.1.15,2013-02-09 18:24:00,
2013-02-09 11:28:00,34.6,18.3,29.74,East,97,1.0,2.0,51,0.00,,,0.02,Wunderground v.1.15,2013-02-09 18:28:00,
2013-02-09 11:30:00,35.0,20.0,29.74,East,92,0.0,2.0,54,0.00,,,0.02,Wunderground v.1.15,2013-02-09 18:30:00,
2013-02-09 11:32:00,35.2,20.2,29.74,East,92,0.0,2.0,54,0.00,,,0.02,Wunderground v.1.15,2013-02-09 18:32:00,
2013-02-09 11:34:00,35.5,20.5,29.74,East,91,0.0,3.0,54,0.00,,,0.02,Wunderground v.1.15,2013-02-09 18:34:00,
2013-02-09 11:38:00,35.0,19.6,29.74,North,5,1.0,3.0,53,0.00,,,0.02,Wunderground v.1.15,2013-02-09 18:38:00,
2013-02-09 11:40:00,34.9,19.5,29.74,North,5,2.0,2.0,53,0.00,,,0.02,Wunderground v.1.15,2013-02-09 18:40:00,
2013-02-09 11:42:00,34.7,19.3,29.74,North,5,2.0,2.0,53,0.00,,,0.02,Wunderground v.1.15,2013-02-09 18:42:00,
2013-02-09 11:44:00,34.6,19.6,29.74,North,5,2.0,2.0,54,0.00,,,0.02,Wunderground v.1.15,2013-02-09 18:44:00,
2013-02-09 11:46:00,34.4,19.5,29.73,North,5,2.0,2.0,54,0.00,,,0.02,Wunderground v.1.15,2013-02-09 18:46:00,
2013-02-09 11:48:00,34.4,20.7,29.73,NNE,24,1.0,3.0,57,0.00,,,0.02,Wunderground v.1.15,2013-02-09 18:48:00,
2013-02-09 11:52:00,34.4,19.9,29.73,NNE,14,2.0,3.0,55,0.00,,,0.02,Wunderground v.1.15,2013-02-09 18:52:00,
2013-02-09 11:54:00,34.3,19.4,29.73,North,11,1.0,3.0,54,0.00,,,0.02,Wunderground v.1.15,2013-02-09 18:54:00,
2013-02-09 11:56:00,34.4,19.0,29.73,North,9,1.0,3.0,53,0.00,,,0.02,Wunderground v.1.15,2013-02-09 18:56:00,
2013-02-09 12:00:00,34.3,18.5,29.73,NNE,22,2.0,2.0,52,0.00,,,0.02,Wunderground v.1.15,2013-02-09 19:00:00,
2013-02-09 12:02:00,34.3,18.5,29.72,NNE,22,2.0,2.0,52,0.00,,,0.02,Wunderground v.1.15,2013-02-09 19:02:00,
2013-02-09 12:04:00,34.4,20.3,29.72,NNE,28,2.0,4.0,56,0.00,,,0.02,Wunderground v.1.15,2013-02-09 19:04:00,
2013-02-09 12:06:00,34.6,20.1,29.72,North,11,2.0,4.0,55,0.00,,,0.02,Wunderground v.1.15,2013-02-09 19:06:00,
2013-02-09 12:10:00,34.6,20.5,29.72,NNE,32,2.0,2.0,56,0.00,,,0.02,Wunderground v.1.15,2013-02-09 19:10:00,
2013-02-09 12:12:00,34.6,20.1,29.72,NNW,347,2.0,3.0,55,0.00,,,0.02,Wunderground v.1.15,2013-02-09 19:12:00,
2013-02-09 12:16:00,34.6,20.5,29.71,NNE,27,2.0,4.0,56,0.00,,,0.02,Wunderground v.1.15,2013-02-09 19:16:00,
2013-02-09 12:18:00,34.6,20.9,29.71,NNW,327,2.0,4.0,57,0.00,,,0.02,Wunderground v.1.15,2013-02-09 19:18:00,
2013-02-09 12:20:00,34.6,19.6,29.71,NNE,17,2.0,2.0,54,0.00,,,0.02,Wunderground v.1.15,2013-02-09 19:20:00,
2013-02-09 12:22:00,34.6,19.6,29.71,NNE,16,2.0,2.0,54,0.00,,,0.02,Wunderground v.1.15,2013-02-09 19:22:00,
2013-02-09 12:24:00,34.7,19.7,29.71,NNE,16,1.0,2.0,54,0.00,,,0.02,Wunderground v.1.15,2013-02-09 19:24:00,
2013-02-09 12:26:00,34.7,19.3,29.71,NW,325,2.0,2.0,53,0.00,,,0.02,Wunderground v.1.15,2013-02-09 19:26:00,
2013-02-09 12:28:00,34.9,19.0,29.71,North,355,1.0,5.0,52,0.00,,,0.02,Wunderground v.1.15,2013-02-09 19:28:00,
2013-02-09 12:30:00,35.0,19.6,29.71,NNE,21,1.0,3.0,53,0.00,,,0.02,Wunderground v.1.15,2013-02-09 19:30:00,
2013-02-09 12:32:00,35.2,20.6,29.72,NNE,21,1.0,3.0,55,0.00,,,0.02,Wunderground v.1.15,2013-02-09 19:32:00,
2013-02-09 12:34:00,35.3,20.3,29.72,NE,51,1.0,3.0,54,0.00,,,0.02,Wunderground v.1.15,2013-02-09 19:34:00,
2013-02-09 12:38:00,35.2,19.3,29.72,NE,41,2.0,4.0,52,0.00,,,0.02,Wunderground v.1.15,2013-02-09 19:38:00,
2013-02-09 12:40:00,35.0,19.1,29.72,NE,40,2.0,2.0,52,0.00,,,0.02,Wunderground v.1.15,2013-02-09 19:40:00,
2013-02-09 12:42:00,35.0,18.2,29.72,NE,42,2.0,2.0,50,0.00,,,0.02,Wunderground v.1.15,2013-02-09 19:42:00,
2013-02-09 12:46:00,35.0,18.2,29.71,ENE,57,1.0,2.0,50,0.00,,,0.02,Wunderground v.1.15,2013-02-09 19:46:00,
2013-02-09 12:48:00,35.0,18.2,29.71,ENE,59,1.0,2.0,50,0.00,,,0.02,Wunderground v.1.15,2013-02-09 19:48:00,
2013-02-09 12:52:00,35.3,17.5,29.71,ENE,59,1.0,1.0,48,0.00,,,0.02,Wunderground v.1.15,2013-02-09 19:52:00,
2013-02-09 12:54:00,35.5,18.2,29.71,ENE,59,0.0,2.0,49,0.00,,,0.02,Wunderground v.1.15,2013-02-09 19:54:00,
2013-02-09 12:56:00,35.8,18.5,29.71,ENE,59,0.0,2.0,49,0.00,,,0.02,Wunderground v.1.15,2013-02-09 19:56:00,
2013-02-09 12:58:00,35.9,18.1,29.71,ENE,59,0.0,2.0,48,0.00,,,0.02,Wunderground v.1.15,2013-02-09 19:58:00,
2013-02-09 13:00:00,36.2,18.4,29.71,ENE,59,0.0,0.0,48,0.00,,,0.02,Wunderground v.1.15,2013-02-09 20:00:00,
2013-02-09 13:02:00,36.3,18.0,29.70,ENE,60,0.0,1.0,47,0.00,,,0.02,Wunderground v.1.15,2013-02-09 20:02:00,
2013-02-09 13:06:00,36.8,18.9,29.70,ENE,60,0.0,1.0,48,0.00,,,0.02,Wunderground v.1.15,2013-02-09 20:06:00,
2013-02-09 13:08:00,36.9,18.5,29.70,ENE,60,0.0,1.0,47,0.00,,,0.02,Wunderground v.1.15,2013-02-09 20:08:00,
2013-02-09 13:10:00,37.0,18.6,29.70,East,82,0.0,2.0,47,0.00,,,0.02,Wunderground v.1.15,2013-02-09 20:10:00,
2013-02-09 13:16:00,36.8,17.9,29.70,East,81,1.0,2.0,46,0.00,,,0.02,Wunderground v.1.15,2013-02-09 20:16:00,
2013-02-09 13:18:00,36.8,17.9,29.70,East,84,1.0,3.0,46,0.00,,,0.02,Wunderground v.1.15,2013-02-09 20:18:00,
2013-02-09 13:20:00,36.6,18.2,29.70,East,84,1.0,1.0,47,0.00,,,0.02,Wunderground v.1.15,2013-02-09 20:20:00,
2013-02-09 13:22:00,36.6,17.7,29.70,East,83,1.0,1.0,46,0.00,,,0.02,Wunderground v.1.15,2013-02-09 20:22:00,
2013-02-09 13:24:00,36.5,17.7,29.70,East,84,1.0,1.0,46,0.00,,,0.02,Wunderground v.1.15,2013-02-09 20:24:00,
2013-02-09 13:26:00,36.5,17.7,29.70,East,83,0.0,1.0,46,0.00,,,0.02,Wunderground v.1.15,2013-02-09 20:26:00,
2013-02-09 13:28:00,36.3,17.5,29.70,East,84,0.0,1.0,46,0.00,,,0.02,Wunderground v.1.15,2013-02-09 20:28:00,
2013-02-09 13:30:00,36.5,18.2,29.70,ENE,67,0.0,1.0,47,0.00,,,0.02,Wunderground v.1.15,2013-02-09 20:30:00,
2013-02-09 13:32:00,36.5,17.7,29.69,ENE,68,0.0,1.0,46,0.00,,,0.02,Wunderground v.1.15,2013-02-09 20:32:00,
2013-02-09 13:34:00,36.6,17.2,29.69,NW,314,0.0,1.0,45,0.00,,,0.02,Wunderground v.1.15,2013-02-09 20:34:00,
2013-02-09 13:36:00,36.6,16.2,29.69,West,273,1.0,2.0,43,0.00,,,0.02,Wunderground v.1.15,2013-02-09 20:36:00,
2013-02-09 13:38:00,36.6,16.7,29.69,West,273,1.0,2.0,44,0.00,,,0.02,Wunderground v.1.15,2013-02-09 20:38:00,
2013-02-09 13:42:00,36.6,17.2,29.69,West,273,1.0,1.0,45,0.00,,,0.02,Wunderground v.1.15,2013-02-09 20:42:00,
2013-02-09 13:46:00,36.6,18.2,29.69,West,273,0.0,1.0,47,0.00,,,0.02,Wunderground v.1.15,2013-02-09 20:46:00,
2013-02-09 13:48:00,36.6,17.7,29.69,West,273,1.0,3.0,46,0.00,,,0.02,Wunderground v.1.15,2013-02-09 20:48:00,
2013-02-09 13:50:00,36.5,17.1,29.69,West,273,1.0,1.0,45,0.00,,,0.02,Wunderground v.1.15,2013-02-09 20:50:00,
2013-02-09 13:52:00,36.3,17.5,29.69,West,273,1.0,1.0,46,0.00,,,0.02,Wunderground v.1.15,2013-02-09 20:52:00,
2013-02-09 13:54:00,36.2,17.9,29.69,West,273,1.0,1.0,47,0.00,,,0.02,Wunderground v.1.15,2013-02-09 20:54:00,
2013-02-09 13:58:00,36.2,18.4,29.69,West,273,1.0,2.0,48,0.00,,,0.02,Wunderground v.1.15,2013-02-09 20:58:00,
2013-02-09 14:00:00,36.2,17.4,29.69,West,273,1.0,1.0,46,0.00,,,0.02,Wunderground v.1.15,2013-02-09 21:00:00,
2013-02-09 14:02:00,36.2,17.9,29.69,West,273,1.0,1.0,47,0.00,,,0.02,Wunderground v.1.15,2013-02-09 21:02:00,
2013-02-09 14:04:00,36.3,17.5,29.69,West,273,0.0,1.0,46,0.00,,,0.02,Wunderground v.1.15,2013-02-09 21:04:00,
2013-02-09 14:08:00,36.3,17.5,29.69,West,273,0.0,1.0,46,0.00,,,0.02,Wunderground v.1.15,2013-02-09 21:08:00,
2013-02-09 14:10:00,36.3,17.5,29.69,West,273,0.0,2.0,46,0.00,,,0.02,Wunderground v.1.15,2013-02-09 21:10:00,
2013-02-09 14:14:00,36.3,17.5,29.69,NE,38,1.0,4.0,46,0.00,,,0.02,Wunderground v.1.15,2013-02-09 21:14:00,
2013-02-09 14:16:00,36.3,17.5,29.70,NNW,327,1.0,4.0,46,0.00,,,0.02,Wunderground v.1.15,2013-02-09 21:16:00,
2013-02-09 14:18:00,36.3,17.5,29.70,NNE,24,1.0,4.0,46,0.00,,,0.02,Wunderground v.1.15,2013-02-09 21:18:00,
2013-02-09 14:22:00,36.3,18.5,29.70,WNW,294,2.0,3.0,48,0.00,,,0.02,Wunderground v.1.15,2013-02-09 21:22:00,
2013-02-09 14:24:00,36.3,18.0,29.70,WNW,298,2.0,4.0,47,0.00,,,0.02,Wunderground v.1.15,2013-02-09 21:24:00,
2013-02-09 14:28:00,36.2,18.4,29.70,WNW,298,1.0,4.0,48,0.00,,,0.02,Wunderground v.1.15,2013-02-09 21:28:00,
2013-02-09 14:30:00,36.3,18.5,29.70,WNW,298,1.0,1.0,48,0.00,,,0.02,Wunderground v.1.15,2013-02-09 21:30:00,
2013-02-09 14:32:00,36.3,17.5,29.70,WNW,298,1.0,1.0,46,0.00,,,0.02,Wunderground v.1.15,2013-02-09 21:32:00,
2013-02-09 14:36:00,36.6,17.2,29.70,WNW,298,0.0,1.0,45,0.00,,,0.02,Wunderground v.1.15,2013-02-09 21:36:00,
2013-02-09 14:38:00,36.6,17.2,29.70,WNW,298,0.0,1.0,45,0.00,,,0.02,Wunderground v.1.15,2013-02-09 21:38:00,
2013-02-09 14:40:00,36.6,17.2,29.70,WNW,298,1.0,1.0,45,0.00,,,0.02,Wunderground v.1.15,2013-02-09 21:40:00,
2013-02-09 14:42:00,36.8,17.4,29.70,WNW,298,0.0,1.0,45,0.00,,,0.02,Wunderground v.1.15,2013-02-09 21:42:00,
2013-02-09 14:44:00,36.8,17.4,29.70,WNW,298,0.0,1.0,45,0.00,,,0.02,Wunderground v.1.15,2013-02-09 21:44:00,
2013-02-09 14:46:00,36.8,17.9,29.68,WNW,298,1.0,3.0,46,0.00,,,0.02,Wunderground v.1.15,2013-02-09 21:46:00,
2013-02-09 14:52:00,36.8,17.9,29.68,WNW,298,1.0,1.0,46,0.00,,,0.02,Wunderground v.1.15,2013-02-09 21:52:00,
2013-02-09 14:54:00,36.8,17.4,29.68,WNW,298,1.0,1.0,45,0.00,,,0.02,Wunderground v.1.15,2013-02-09 21:54:00,
2013-02-09 14:56:00,36.6,17.2,29.68,WNW,298,1.0,1.0,45,0.00,,,0.02,Wunderground v.1.15,2013-02-09 21:56:00,
2013-02-09 15:00:00,36.6,17.7,29.68,WNW,298,1.0,1.0,46,0.00,,,0.02,Wunderground v.1.15,2013-02-09 22:00:00,
2013-02-09 15:04:00,36.6,17.2,29.68,WNW,298,1.0,3.0,45,0.00,,,0.02,Wunderground v.1.15,2013-02-09 22:04:00,
2013-02-09 15:08:00,36.6,17.2,29.68,WNW,298,1.0,3.0,45,0.00,,,0.02,Wunderground v.1.15,2013-02-09 22:08:00,
2013-02-09 15:10:00,36.6,17.7,29.68,WNW,298,1.0,1.0,46,0.00,,,0.02,Wunderground v.1.15,2013-02-09 22:10:00,
2013-02-09 15:12:00,36.8,17.9,29.68,WNW,298,1.0,1.0,46,0.00,,,0.02,Wunderground v.1.15,2013-02-09 22:12:00,
2013-02-09 15:14:00,36.8,16.9,29.68,WNW,298,0.0,1.0,44,0.00,,,0.02,Wunderground v.1.15,2013-02-09 22:14:00,
2013-02-09 15:16:00,36.9,17.5,29.70,WNW,298,0.0,1.0,45,0.00,,,0.02,Wunderground v.1.15,2013-02-09 22:16:00,
2013-02-09 15:20:00,36.8,16.9,29.70,WNW,298,1.0,1.0,44,0.00,,,0.02,Wunderground v.1.15,2013-02-09 22:20:00,
2013-02-09 15:22:00,36.8,17.4,29.70,WNW,298,1.0,1.0,45,0.00,,,0.02,Wunderground v.1.15,2013-02-09 22:22:00,
2013-02-09 15:26:00,36.8,17.4,29.70,WNW,298,1.0,1.0,45,0.00,,,0.02,Wunderground v.1.15,2013-02-09 22:26:00,
2013-02-09 15:28:00,36.6,17.7,29.70,WNW,298,1.0,1.0,46,0.00,,,0.02,Wunderground v.1.15,2013-02-09 22:28:00,
2013-02-09 15:32:00,36.5,18.2,29.70,NNW,340,2.0,2.0,47,0.00,,,0.02,Wunderground v.1.15,2013-02-09 22:32:00,
2013-02-09 15:34:00,36.3,18.5,29.70,North,355,2.0,7.0,48,0.00,,,0.02,Wunderground v.1.15,2013-02-09 22:34:00,
2013-02-09 15:36:00,36.0,19.6,29.70,NW,306,3.0,7.0,51,0.00,,,0.02,Wunderground v.1.15,2013-02-09 22:36:00,
2013-02-09 15:38:00,35.8,20.8,29.70,NNW,327,3.0,7.0,54,0.00,,,0.02,Wunderground v.1.15,2013-02-09 22:38:00,
2013-02-09 15:40:00,35.5,20.5,29.70,NW,321,4.0,7.0,54,0.00,,,0.02,Wunderground v.1.15,2013-02-09 22:40:00,
2013-02-09 15:42:00,35.0,20.9,29.70,NNW,333,5.0,11.0,56,0.00,,,0.02,Wunderground v.1.15,2013-02-09 22:42:00,
2013-02-09 15:44:00,34.6,20.1,29.70,NW,313,6.0,11.0,55,0.00,,,0.02,Wunderground v.1.15,2013-02-09 22:44:00,
2013-02-09 15:46:00,34.4,20.3,29.73,NW,325,7.0,11.0,56,0.00,,,0.02,Wunderground v.1.15,2013-02-09 22:46:00,
2013-02-09 15:50:00,34.0,20.3,29.73,NNW,332,8.0,11.0,57,0.00,,,0.02,Wunderground v.1.15,2013-02-09 22:50:00,
2013-02-09 15:52:00,33.8,20.2,29.73,North,355,8.0,15.0,57,0.00,,,0.02,Wunderground v.1.15,2013-02-09 22:52:00,
2013-02-09 15:54:00,33.7,20.5,29.73,NW,325,8.0,15.0,58,0.00,,,0.02,Wunderground v.1.15,2013-02-09 22:54:00,
2013-02-09 15:56:00,33.5,19.9,29.73,NW,309,8.0,15.0,57,0.00,,,0.02,Wunderground v.1.15,2013-02-09 22:56:00,
2013-02-09 16:00:00,33.2,19.6,29.73,NW,322,8.0,8.0,57,0.00,,,0.02,Wunderground v.1.15,2013-02-09 23:00:00,
2013-02-09 16:02:00,33.2,19.6,29.73,NW,304,7.0,8.0,57,0.00,,,0.02,Wunderground v.1.15,2013-02-09 23:02:00,
2013-02-09 16:06:00,32.9,19.7,29.73,WNW,303,7.0,8.0,58,0.00,,,0.02,Wunderground v.1.15,2013-02-09 23:06:00,
2013-02-09 16:10:00,32.7,19.9,29.73,WNW,298,7.0,7.0,59,0.00,,,0.02,Wunderground v.1.15,2013-02-09 23:10:00,
2013-02-09 16:12:00,32.5,20.1,29.73,SW,225,7.0,7.0,60,0.00,,,0.02,Wunderground v.1.15,2013-02-09 23:12:00,
2013-02-09 16:14:00,32.4,20.0,29.73,NW,314,6.0,7.0,60,0.00,,,0.02,Wunderground v.1.15,2013-02-09 23:14:00,
2013-02-09 16:18:00,32.1,19.8,29.76,NW,326,5.0,7.0,60,0.00,,,0.02,Wunderground v.1.15,2013-02-09 23:18:00,
2013-02-09 16:20:00,32.1,20.2,29.76,NW,305,4.0,4.0,61,0.00,,,0.02,Wunderground v.1.15,2013-02-09 23:20:00,
2013-02-09 16:22:00,31.9,20.0,29.76,NW,317,5.0,5.0,61,0.00,,,0.02,Wunderground v.1.15,2013-02-09 23:22:00,
2013-02-09 16:26:00,31.8,20.3,29.76,NW,311,5.0,11.0,62,0.00,,,0.02,Wunderground v.1.15,2013-02-09 23:26:00,
2013-02-09 16:28:00,31.5,20.3,29.76,NW,306,5.0,11.0,63,0.00,,,0.02,Wunderground v.1.15,2013-02-09 23:28:00,
2013-02-09 16:30:00,31.3,20.5,29.76,WNW,299,5.0,6.0,64,0.00,,,0.02,Wunderground v.1.15,2013-02-09 23:30:00,
2013-02-09 16:32:00,31.2,20.8,29.79,NNW,336,5.0,6.0,65,0.00,,,0.02,Wunderground v.1.15,2013-02-09 23:32:00,
2013-02-09 16:38:00,30.7,20.7,29.79,NW,308,5.0,6.0,66,0.00,,,0.02,Wunderground v.1.15,2013-02-09 23:38:00,
2013-02-09 16:40:00,30.6,20.6,29.79,WNW,296,4.0,4.0,66,0.00,,,0.02,Wunderground v.1.15,2013-02-09 23:40:00,
2013-02-09 16:42:00,30.6,20.6,29.79,NW,312,4.0,4.0,66,0.00,,,0.02,Wunderground v.1.15,2013-02-09 23:42:00,
2013-02-09 16:44:00,30.4,20.7,29.79,NW,308,3.0,4.0,67,0.00,,,0.02,Wunderground v.1.15,2013-02-09 23:44:00,
2013-02-09 16:46:00,30.4,20.7,29.79,NW,306,3.0,5.0,67,0.00,,,0.02,Wunderground v.1.15,2013-02-09 23:46:00,
2013-02-09 16:48:00,30.4,20.7,29.79,WNW,298,3.0,5.0,67,0.00,,,0.02,Wunderground v.1.15,2013-02-09 23:48:00,
2013-02-09 16:50:00,30.4,20.7,29.79,WNW,299,3.0,3.0,67,0.00,,,0.02,Wunderground v.1.15,2013-02-09 23:50:00,
2013-02-09 16:52:00,30.4,20.7,29.79,WNW,297,3.0,3.0,67,0.00,,,0.02,Wunderground v.1.15,2013-02-09 23:52:00,
2013-02-09 16:54:00,30.4,21.1,29.79,WNW,298,3.0,3.0,68,0.00,,,0.02,Wunderground v.1.15,2013-02-09 23:54:00,
2013-02-09 16:56:00,30.4,21.1,29.79,NW,304,2.0,6.0,68,0.00,,,0.02,Wunderground v.1.15,2013-02-09 23:56:00,
2013-02-09 16:58:00,30.3,21.0,29.79,WNW,298,2.0,6.0,68,0.00,,,0.02,Wunderground v.1.15,2013-02-09 23:58:00,
2013-02-09 17:00:00,30.3,21.3,29.79,WNW,298,2.0,2.0,69,0.00,,,0.02,Wunderground v.1.15,2013-02-10 00:00:00,
2013-02-09 17:06:00,30.1,22.5,29.80,WSW,238,1.0,8.0,73,0.00,,,0.02,Wunderground v.1.15,2013-02-10 00:06:00,
2013-02-09 17:08:00,29.8,22.8,29.80,WSW,249,2.0,10.0,75,0.00,,,0.02,Wunderground v.1.15,2013-02-10 00:08:00,
2013-02-09 17:10:00,29.4,23.1,29.80,WSW,239,3.0,3.0,77,0.00,,,0.02,Wunderground v.1.15,2013-02-10 00:10:00,
2013-02-09 17:14:00,29.1,23.4,29.80,WSW,238,3.0,3.0,79,0.00,,,0.02,Wunderground v.1.15,2013-02-10 00:14:00,
2013-02-09 17:18:00,28.7,23.3,29.82,WSW,240,3.0,9.0,80,0.00,,,0.02,Wunderground v.1.15,2013-02-10 00:18:00,
2013-02-09 17:20:00,28.7,23.3,29.82,WSW,237,4.0,11.0,80,0.00,,,0.02,Wunderground v.1.15,2013-02-10 00:20:00,
2013-02-09 17:24:00,28.7,23.0,29.82,WSW,238,4.0,11.0,79,0.00,,,0.02,Wunderground v.1.15,2013-02-10 00:24:00,
2013-02-09 17:26:00,28.7,22.7,29.82,SW,228,4.0,11.0,78,0.00,,,0.02,Wunderground v.1.15,2013-02-10 00:26:00,
2013-02-09 17:28:00,28.7,22.1,29.82,SW,236,4.0,11.0,76,0.00,,,0.02,Wunderground v.1.15,2013-02-10 00:28:00,
2013-02-09 17:30:00,28.8,22.2,29.82,WSW,238,4.0,4.0,76,0.00,,,0.02,Wunderground v.1.15,2013-02-10 00:30:00,
2013-02-09 17:34:00,29.0,21.7,29.83,SW,235,5.0,5.0,74,0.00,,,0.02,Wunderground v.1.15,2013-02-10 00:34:00,
2013-02-09 17:36:00,29.1,21.8,29.83,SW,235,4.0,5.0,74,0.00,,,0.02,Wunderground v.1.15,2013-02-10 00:36:00,
2013-02-09 17:40:00,29.1,21.5,29.83,SW,236,3.0,3.0,73,0.00,,,0.02,Wunderground v.1.15,2013-02-10 00:40:00,
2013-02-09 17:42:00,29.3,21.7,29.83,SW,235,3.0,3.0,73,0.00,,,0.02,Wunderground v.1.15,2013-02-10 00:42:00,
2013-02-09 17:44:00,29.3,21.7,29.83,SW,235,2.0,3.0,73,0.00,,,0.02,Wunderground v.1.15,2013-02-10 00:44:00,
2013-02-09 17:48:00,29.3,21.4,29.84,SW,236,1.0,3.0,72,0.00,,,0.02,Wunderground v.1.15,2013-02-10 00:48:00,
2013-02-09 17:52:00,29.4,21.5,29.84,SW,235,1.0,3.0,72,0.00,,,0.02,Wunderground v.1.15,2013-02-10 00:52:00,
2013-02-09 17:54:00,29.4,20.8,29.84,SW,236,1.0,3.0,70,0.00,,,0.02,Wunderground v.1.15,2013-02-10 00:54:00,
2013-02-09 17:56:00,29.4,20.8,29.84,SW,235,1.0,3.0,70,0.00,,,0.02,Wunderground v.1.15,2013-02-10 00:56:00,
2013-02-09 18:00:00,29.5,20.6,29.84,SW,235,1.0,1.0,69,0.00,,,0.02,Wunderground v.1.15,2013-02-10 01:00:00,
2013-02-09 18:02:00,29.5,20.6,29.84,SW,235,1.0,2.0,69,0.00,,,0.02,Wunderground v.1.15,2013-02-10 01:02:00,
2013-02-09 18:06:00,29.7,20.1,29.84,SW,235,1.0,2.0,67,0.00,,,0.02,Wunderground v.1.15,2013-02-10 01:06:00,
2013-02-09 18:10:00,29.8,19.8,29.84,SW,236,1.0,1.0,66,0.00,,,0.02,Wunderground v.1.15,2013-02-10 01:10:00,
2013-02-09 18:12:00,29.8,19.8,29.84,SW,236,1.0,1.0,66,0.00,,,0.02,Wunderground v.1.15,2013-02-10 01:12:00,
2013-02-09 18:14:00,29.8,19.8,29.84,SW,235,1.0,2.0,66,0.00,,,0.02,Wunderground v.1.15,2013-02-10 01:14:00,
2013-02-09 18:16:00,29.8,19.5,29.84,SW,235,1.0,4.0,65,0.00,,,0.02,Wunderground v.1.15,2013-02-10 01:16:00,
2013-02-09 18:18:00,29.8,19.1,29.84,SW,235,1.0,4.0,64,0.00,,,0.02,Wunderground v.1.15,2013-02-10 01:18:00,
2013-02-09 18:20:00,30.0,19.3,29.84,SW,236,1.0,3.0,64,0.00,,,0.02,Wunderground v.1.15,2013-02-10 01:20:00,
2013-02-09 18:22:00,30.0,19.3,29.84,SW,235,1.0,3.0,64,0.00,,,0.02,Wunderground v.1.15,2013-02-10 01:22:00,
2013-02-09 18:24:00,30.0,19.7,29.84,SW,235,1.0,3.0,65,0.00,,,0.02,Wunderground v.1.15,2013-02-10 01:24:00,
2013-02-09 18:28:00,30.0,19.3,29.84,SW,235,1.0,3.0,64,0.00,,,0.02,Wunderground v.1.15,2013-02-10 01:28:00,
2013-02-09 18:32:00,30.0,19.7,29.85,SW,236,0.0,0.0,65,0.00,,,0.02,Wunderground v.1.15,2013-02-10 01:32:00,
2013-02-09 18:38:00,30.0,19.3,29.85,SW,236,0.0,0.0,64,0.00,,,0.02,Wunderground v.1.15,2013-02-10 01:38:00,
2013-02-09 18:40:00,30.0,19.3,29.85,SW,236,0.0,0.0,64,0.00,,,0.02,Wunderground v.1.15,2013-02-10 01:40:00,
2013-02-09 18:44:00,30.1,19.4,29.85,SW,236,0.0,1.0,64,0.00,,,0.02,Wunderground v.1.15,2013-02-10 01:44:00,
2013-02-09 18:46:00,30.0,18.9,29.86,SW,235,0.0,1.0,63,0.00,,,0.02,Wunderground v.1.15,2013-02-10 01:46:00,
2013-02-09 18:50:00,30.0,18.9,29.86,SW,235,0.0,1.0,63,0.00,,,0.02,Wunderground v.1.15,2013-02-10 01:50:00,
2013-02-09 18:54:00,30.0,18.9,29.86,SW,236,0.0,0.0,63,0.00,,,0.02,Wunderground v.1.15,2013-02-10 01:54:00,
2013-02-09 18:56:00,30.0,18.9,29.86,SW,235,0.0,0.0,63,0.00,,,0.02,Wunderground v.1.15,2013-02-10 01:56:00,
2013-02-09 18:58:00,30.0,18.9,29.86,SW,236,0.0,0.0,63,0.00,,,0.02,Wunderground v.1.15,2013-02-10 01:58:00,
2013-02-09 19:02:00,30.0,18.9,29.86,SW,236,0.0,0.0,63,0.00,,,0.02,Wunderground v.1.15,2013-02-10 02:02:00,
2013-02-09 19:06:00,30.1,19.4,29.86,SW,235,0.0,0.0,64,0.00,,,0.02,Wunderground v.1.15,2013-02-10 02:06:00,
2013-02-09 19:10:00,30.0,19.3,29.86,SW,236,0.0,0.0,64,0.00,,,0.02,Wunderground v.1.15,2013-02-10 02:10:00,
2013-02-09 19:12:00,30.0,19.3,29.86,SW,235,0.0,0.0,64,0.00,,,0.02,Wunderground v.1.15,2013-02-10 02:12:00,
2013-02-09 19:16:00,29.8,19.8,29.86,SW,236,0.0,1.0,66,0.00,,,0.02,Wunderground v.1.15,2013-02-10 02:16:00,
2013-02-09 19:18:00,29.8,19.8,29.86,SW,235,0.0,1.0,66,0.00,,,0.02,Wunderground v.1.15,2013-02-10 02:18:00,
2013-02-09 19:20:00,29.7,20.4,29.86,SW,235,0.0,0.0,68,0.00,,,0.02,Wunderground v.1.15,2013-02-10 02:20:00,
2013-02-09 19:26:00,29.4,20.1,29.86,SW,235,0.0,0.0,68,0.00,,,0.02,Wunderground v.1.15,2013-02-10 02:26:00,
2013-02-09 19:28:00,29.3,20.0,29.86,SW,235,0.0,0.0,68,0.00,,,0.02,Wunderground v.1.15,2013-02-10 02:28:00,
2013-02-09 19:30:00,29.3,20.4,29.86,SW,235,0.0,0.0,69,0.00,,,0.02,Wunderground v.1.15,2013-02-10 02:30:00,
2013-02-09 19:34:00,29.3,20.4,29.87,SW,235,0.0,0.0,69,0.00,,,0.02,Wunderground v.1.15,2013-02-10 02:34:00,
2013-02-09 19:36:00,29.3,20.4,29.87,SW,235,0.0,0.0,69,0.00,,,0.02,Wunderground v.1.15,2013-02-10 02:36:00,
2013-02-09 19:40:00,29.3,20.4,29.87,SW,235,0.0,0.0,69,0.00,,,0.02,Wunderground v.1.15,2013-02-10 02:40:00,
2013-02-09 19:42:00,29.3,20.4,29.87,SW,236,0.0,0.0,69,0.00,,,0.02,Wunderground v.1.15,2013-02-10 02:42:00,
2013-02-09 19:44:00,29.3,20.4,29.87,SW,235,0.0,0.0,69,0.00,,,0.02,Wunderground v.1.15,2013-02-10 02:44:00,
2013-02-09 19:46:00,29.3,20.4,29.87,SW,235,0.0,0.0,69,0.00,,,0.02,Wunderground v.1.15,2013-02-10 02:46:00,
2013-02-09 19:48:00,29.3,20.0,29.87,SW,235,0.0,0.0,68,0.00,,,0.02,Wunderground v.1.15,2013-02-10 02:48:00,
2013-02-09 19:54:00,29.4,20.5,29.87,SW,235,0.0,0.0,69,0.00,,,0.02,Wunderground v.1.15,2013-02-10 02:54:00,
2013-02-09 19:56:00,29.4,19.4,29.87,SW,235,0.0,0.0,66,0.00,,,0.02,Wunderground v.1.15,2013-02-10 02:56:00,
2013-02-09 19:58:00,29.4,19.8,29.87,SW,235,0.0,0.0,67,0.00,,,0.02,Wunderground v.1.15,2013-02-10 02:58:00,
2013-02-09 20:00:00,29.5,19.9,29.88,SW,236,0.0,0.0,67,0.00,,,0.02,Wunderground v.1.15,2013-02-10 03:00:00,
2013-02-09 20:06:00,29.5,19.9,29.88,SW,235,0.0,0.0,67,0.00,,,0.02,Wunderground v.1.15,2013-02-10 03:06:00,
2013-02-09 20:08:00,29.5,19.9,29.88,SW,235,0.0,0.0,67,0.00,,,0.02,Wunderground v.1.15,2013-02-10 03:08:00,
2013-02-09 20:14:00,29.5,19.5,29.88,SW,235,0.0,0.0,66,0.00,,,0.02,Wunderground v.1.15,2013-02-10 03:14:00,
2013-02-09 20:16:00,29.5,19.5,29.87,SW,236,0.0,0.0,66,0.00,,,0.02,Wunderground v.1.15,2013-02-10 03:16:00,
2013-02-09 20:22:00,29.5,19.5,29.87,SW,236,0.0,0.0,66,0.00,,,0.02,Wunderground v.1.15,2013-02-10 03:22:00,
2013-02-09 20:24:00,29.5,19.5,29.87,SW,235,0.0,0.0,66,0.00,,,0.02,Wunderground v.1.15,2013-02-10 03:24:00,
2013-02-09 20:26:00,29.5,19.9,29.87,SW,236,0.0,0.0,67,0.00,,,0.02,Wunderground v.1.15,2013-02-10 03:26:00,
2013-02-09 20:28:00,29.5,19.9,29.87,SW,236,0.0,0.0,67,0.00,,,0.02,Wunderground v.1.15,2013-02-10 03:28:00,
2013-02-09 20:32:00,29.5,20.2,29.88,SW,235,0.0,0.0,68,0.00,,,0.02,Wunderground v.1.15,2013-02-10 03:32:00,
2013-02-09 20:34:00,29.4,20.1,29.88,SW,235,0.0,0.0,68,0.00,,,0.02,Wunderground v.1.15,2013-02-10 03:34:00,
2013-02-09 20:36:00,29.4,20.1,29.88,SW,235,0.0,0.0,68,0.00,,,0.02,Wunderground v.1.15,2013-02-10 03:36:00,
2013-02-09 20:38:00,29.4,20.5,29.88,SW,235,0.0,0.0,69,0.00,,,0.02,Wunderground v.1.15,2013-02-10 03:38:00,
2013-02-09 20:42:00,29.4,20.5,29.88,SW,235,0.0,0.0,69,0.00,,,0.02,Wunderground v.1.15,2013-02-10 03:42:00,
2013-02-09 20:44:00,29.4,20.5,29.88,SW,235,0.0,0.0,69,0.00,,,0.02,Wunderground v.1.15,2013-02-10 03:44:00,
2013-02-09 20:48:00,29.3,20.4,29.90,SW,235,0.0,1.0,69,0.00,,,0.02,Wunderground v.1.15,2013-02-10 03:48:00,
2013-02-09 20:50:00,29.3,20.7,29.90,SW,236,0.0,0.0,70,0.00,,,0.02,Wunderground v.1.15,2013-02-10 03:50:00,
2013-02-09 20:54:00,29.3,20.7,29.90,SW,236,0.0,0.0,70,0.00,,,0.02,Wunderground v.1.15,2013-02-10 03:54:00,
2013-02-09 20:56:00,29.3,20.7,29.90,SW,235,0.0,0.0,70,0.00,,,0.02,Wunderground v.1.15,2013-02-10 03:56:00,
2013-02-09 20:58:00,29.3,20.7,29.90,SW,236,0.0,0.0,70,0.00,,,0.02,Wunderground v.1.15,2013-02-10 03:58:00,
2013-02-09 21:04:00,29.1,20.5,29.90,SW,235,0.0,0.0,70,0.00,,,0.02,Wunderground v.1.15,2013-02-10 04:04:00,
2013-02-09 21:06:00,29.1,20.5,29.90,SW,236,0.0,0.0,70,0.00,,,0.02,Wunderground v.1.15,2013-02-10 04:06:00,
2013-02-09 21:08:00,29.1,20.5,29.90,SW,235,0.0,0.0,70,0.00,,,0.02,Wunderground v.1.15,2013-02-10 04:08:00,
2013-02-09 21:10:00,29.1,20.5,29.90,SW,236,0.0,0.0,70,0.00,,,0.02,Wunderground v.1.15,2013-02-10 04:10:00,
2013-02-09 21:12:00,29.1,20.9,29.90,SW,235,0.0,0.0,71,0.00,,,0.02,Wunderground v.1.15,2013-02-10 04:12:00,
2013-02-09 21:14:00,29.1,20.5,29.90,SW,235,0.0,0.0,70,0.00,,,0.02,Wunderground v.1.15,2013-02-10 04:14:00,
2013-02-09 21:18:00,29.1,20.5,29.90,SW,235,0.0,0.0,70,0.00,,,0.02,Wunderground v.1.15,2013-02-10 04:18:00,
2013-02-09 21:20:00,29.1,20.5,29.90,SW,235,0.0,0.0,70,0.00,,,0.02,Wunderground v.1.15,2013-02-10 04:20:00,
2013-02-09 21:24:00,29.1,20.9,29.90,SW,235,0.0,0.0,71,0.00,,,0.02,Wunderground v.1.15,2013-02-10 04:24:00,
2013-02-09 21:26:00,29.1,20.9,29.90,SW,235,0.0,0.0,71,0.00,,,0.02,Wunderground v.1.15,2013-02-10 04:26:00,
2013-02-09 21:32:00,29.1,20.5,29.90,SW,235,0.0,0.0,70,0.00,,,0.02,Wunderground v.1.15,2013-02-10 04:32:00,
2013-02-09 21:34:00,29.1,20.5,29.90,SW,236,0.0,0.0,70,0.00,,,0.02,Wunderground v.1.15,2013-02-10 04:34:00,
2013-02-09 21:36:00,29.1,20.5,29.90,SW,235,0.0,0.0,70,0.00,,,0.02,Wunderground v.1.15,2013-02-10 04:36:00,
2013-02-09 21:38:00,29.1,20.5,29.90,SW,235,0.0,0.0,70,0.00,,,0.02,Wunderground v.1.15,2013-02-10 04:38:00,
2013-02-09 21:42:00,29.1,20.2,29.90,SW,235,0.0,0.0,69,0.00,,,0.02,Wunderground v.1.15,2013-02-10 04:42:00,
2013-02-09 21:44:00,29.1,19.8,29.90,SW,235,0.0,0.0,68,0.00,,,0.02,Wunderground v.1.15,2013-02-10 04:44:00,
2013-02-09 21:46:00,29.1,19.5,29.91,SW,235,0.0,0.0,67,0.00,,,0.02,Wunderground v.1.15,2013-02-10 04:46:00,
2013-02-09 21:48:00,29.1,19.5,29.91,SW,235,0.0,0.0,67,0.00,,,0.02,Wunderground v.1.15,2013-02-10 04:48:00,
2013-02-09 21:50:00,29.1,19.5,29.91,SW,236,0.0,0.0,67,0.00,,,0.02,Wunderground v.1.15,2013-02-10 04:50:00,
2013-02-09 21:52:00,29.1,19.2,29.91,SW,235,0.0,0.0,66,0.00,,,0.02,Wunderground v.1.15,2013-02-10 04:52:00,
2013-02-09 21:54:00,29.1,18.8,29.91,SW,235,0.0,0.0,65,0.00,,,0.02,Wunderground v.1.15,2013-02-10 04:54:00,
2013-02-09 21:56:00,29.1,18.8,29.91,SW,235,0.0,0.0,65,0.00,,,0.02,Wunderground v.1.15,2013-02-10 04:56:00,
2013-02-09 21:58:00,29.3,19.3,29.91,SW,235,0.0,0.0,66,0.00,,,0.02,Wunderground v.1.15,2013-02-10 04:58:00,
2013-02-09 22:00:00,29.3,19.0,29.91,SW,235,0.0,0.0,65,0.00,,,0.02,Wunderground v.1.15,2013-02-10 05:00:00,
2013-02-09 22:02:00,29.3,18.6,29.91,SW,235,0.0,0.0,64,0.00,,,0.02,Wunderground v.1.15,2013-02-10 05:02:00,
2013-02-09 22:04:00,29.3,18.6,29.91,SW,236,0.0,0.0,64,0.00,,,0.02,Wunderground v.1.15,2013-02-10 05:04:00,
2013-02-09 22:08:00,29.3,18.6,29.91,SW,235,0.0,0.0,64,0.00,,,0.02,Wunderground v.1.15,2013-02-10 05:08:00,
2013-02-09 22:10:00,29.4,19.1,29.91,SW,236,0.0,0.0,65,0.00,,,0.02,Wunderground v.1.15,2013-02-10 05:10:00,
2013-02-09 22:12:00,29.4,19.1,29.91,SW,235,0.0,0.0,65,0.00,,,0.02,Wunderground v.1.15,2013-02-10 05:12:00,
2013-02-09 22:14:00,29.4,19.1,29.91,SW,236,0.0,0.0,65,0.00,,,0.02,Wunderground v.1.15,2013-02-10 05:14:00,
2013-02-09 22:16:00,29.4,19.1,29.91,SW,235,0.0,0.0,65,0.00,,,0.02,Wunderground v.1.15,2013-02-10 05:16:00,
2013-02-09 22:18:00,29.4,19.1,29.91,SW,236,0.0,0.0,65,0.00,,,0.02,Wunderground v.1.15,2013-02-10 05:18:00,
2013-02-09 22:20:00,29.3,19.0,29.91,SW,235,0.0,0.0,65,0.00,,,0.02,Wunderground v.1.15,2013-02-10 05:20:00,
2013-02-09 22:26:00,29.1,18.1,29.91,SW,236,0.0,0.0,63,0.00,,,0.02,Wunderground v.1.15,2013-02-10 05:26:00,
2013-02-09 22:28:00,29.1,17.7,29.91,SW,235,0.0,0.0,62,0.00,,,0.02,Wunderground v.1.15,2013-02-10 05:28:00,
2013-02-09 22:32:00,29.1,17.7,29.91,SW,236,0.0,0.0,62,0.00,,,0.02,Wunderground v.1.15,2013-02-10 05:32:00,
2013-02-09 22:38:00,29.0,16.1,29.91,SW,236,0.0,0.0,58,0.00,,,0.02,Wunderground v.1.15,2013-02-10 05:38:00,
2013-02-09 22:40:00,29.0,15.7,29.91,SW,235,0.0,0.0,57,0.00,,,0.02,Wunderground v.1.15,2013-02-10 05:40:00,
2013-02-09 22:42:00,29.0,14.8,29.91,SW,235,0.0,0.0,55,0.00,,,0.02,Wunderground v.1.15,2013-02-10 05:42:00,
2013-02-09 22:48:00,29.4,14.4,29.92,SW,235,1.0,1.0,53,0.00,,,0.02,Wunderground v.1.15,2013-02-10 05:48:00,
2013-02-09 22:52:00,29.5,14.0,29.92,SW,235,0.0,1.0,52,0.00,,,0.02,Wunderground v.1.15,2013-02-10 05:52:00,
2013-02-09 22:54:00,29.7,14.2,29.92,SW,235,0.0,1.0,52,0.00,,,0.02,Wunderground v.1.15,2013-02-10 05:54:00,
2013-02-09 22:56:00,29.7,13.8,29.92,SW,235,0.0,1.0,51,0.00,,,0.02,Wunderground v.1.15,2013-02-10 05:56:00,
2013-02-09 22:58:00,29.7,14.2,29.92,SW,235,0.0,1.0,52,0.00,,,0.02,Wunderground v.1.15,2013-02-10 05:58:00,
2013-02-09 23:00:00,29.7,13.8,29.92,SW,235,0.0,0.0,51,0.00,,,0.02,Wunderground v.1.15,2013-02-10 06:00:00,
2013-02-09 23:02:00,29.8,13.9,29.92,SW,235,0.0,0.0,51,0.00,,,0.02,Wunderground v.1.15,2013-02-10 06:02:00,
2013-02-09 23:04:00,29.8,13.9,29.92,SW,235,0.0,0.0,51,0.00,,,0.02,Wunderground v.1.15,2013-02-10 06:04:00,
2013-02-09 23:08:00,29.8,13.9,29.92,SW,236,0.0,0.0,51,0.00,,,0.02,Wunderground v.1.15,2013-02-10 06:08:00,
2013-02-09 23:12:00,29.8,13.4,29.92,SW,235,0.0,0.0,50,0.00,,,0.02,Wunderground v.1.15,2013-02-10 06:12:00,
2013-02-09 23:16:00,29.8,13.4,29.91,SW,235,1.0,1.0,50,0.00,,,0.02,Wunderground v.1.15,2013-02-10 06:16:00,
2013-02-09 23:20:00,29.8,13.9,29.91,SW,235,1.0,1.0,51,0.00,,,0.02,Wunderground v.1.15,2013-02-10 06:20:00,
2013-02-09 23:22:00,29.8,13.9,29.91,SW,235,1.0,1.0,51,0.00,,,0.02,Wunderground v.1.15,2013-02-10 06:22:00,
2013-02-09 23:26:00,29.8,13.9,29.91,SW,235,0.0,1.0,51,0.00,,,0.02,Wunderground v.1.15,2013-02-10 06:26:00,
2013-02-09 23:28:00,29.8,13.9,29.91,SW,236,0.0,1.0,51,0.00,,,0.02,Wunderground v.1.15,2013-02-10 06:28:00,
2013-02-09 23:34:00,29.7,14.2,29.92,SW,235,0.0,0.0,52,0.00,,,0.02,Wunderground v.1.15,2013-02-10 06:34:00,
2013-02-09 23:36:00,29.7,14.2,29.92,SW,236,0.0,0.0,52,0.00,,,0.02,Wunderground v.1.15,2013-02-10 06:36:00,
2013-02-09 23:40:00,29.7,14.2,29.92,SW,235,0.0,0.0,52,0.00,,,0.02,Wunderground v.1.15,2013-02-10 06:40:00,
2013-02-09 23:42:00,29.7,14.6,29.92,SW,235,0.0,0.0,53,0.00,,,0.02,Wunderground v.1.15,2013-02-10 06:42:00,
2013-02-09 23:44:00,29.7,14.6,29.92,SW,235,0.0,1.0,53,0.00,,,0.02,Wunderground v.1.15,2013-02-10 06:44:00,
2013-02-09 23:48:00,29.5,14.0,29.92,SW,235,0.0,3.0,52,0.00,,,0.02,Wunderground v.1.15,2013-02-10 06:48:00,
2013-02-09 23:50:00,29.5,14.5,29.92,NNE,14,1.0,3.0,53,0.00,,,0.02,Wunderground v.1.15,2013-02-10 06:50:00,
2013-02-09 23:52:00,29.5,14.9,29.92,NNE,14,1.0,3.0,54,0.00,,,0.02,Wunderground v.1.15,2013-02-10 06:52:00,
2013-02-09 23:54:00,29.4,15.2,29.92,NNE,14,2.0,3.0,55,0.00,,,0.02,Wunderground v.1.15,2013-02-10 06:54:00,
2013-02-09 23:56:00,29.4,16.0,29.92,North,5,2.0,3.0,57,0.00,,,0.02,Wunderground v.1.15,2013-02-10 06:56:00,